Location: Cahas Mountain Overlook
(37.0833°N, 80.1000°W)
Time: 18:38:13
(UTC-04:00)

SR - Pass Details

Date: 10 February 2026
Orbit: 572 x 849 km, 66.7° (Epoch: 12 March)

Event Time Altitude Azimuth Distance (km) Brightness Sun altitude
Rises 06:39:40 0° 216° (SW) 2,763 ? -7.6°
Reaches altitude 10° 06:41:54 10° 221° (SW) 1,866 ? -7.1°
Maximum altitude 06:45:59 57° 300° (WNW) 682 ? -6.3°
Drops below altitude 10° 06:50:13 10° 20° (NNE) 1,926 ? -5.5°
Sets 06:52:33 0° 24° (NNE) 2,861 ? -5.1°
